Auburn, CA

12:24 AM PDT on June 26, 2017 (GMT -0700)
Auburn Municipal

Weather History for KAUN - December, 2014

Change the Weather History Date:

Sunday, December 7, 2014

  Actual Average Record
Temperature  
Mean Temperature 54 °F -  
Max Temperature 59 °F 55 °F 69 °F (1958)
Min Temperature 50 °F 38 °F 26 °F (1978)
Degree Days  
Heating Degree Days 10    
Growing Degree Days 4 (Base 50)    
Moisture  
Dew Point 46 °F    
Average Humidity 80    
Maximum Humidity 100    
Minimum Humidity 63    
Precipitation  
Precipitation 0.00 in - - ()
Sea Level Pressure  
Sea Level Pressure 30.21 in    
Wind  
Wind Speed 7 mph (ESE)    
Max Wind Speed 10 mph    
Max Gust Speed -    
Visibility 10 miles    
Events      
Averages and records for this station are not official NWS values.
T = Trace of Precipitation, MM = Missing Value Source: NWS Daily Summary

Daily Weather History Graph

Daily Weather History Graph

Search for Another Location

Airport or City:

Trip Planner

Search our weather history database for the weather conditions in past years. The results will help you decide how hot, cold, wet, or windy it might be!

Date:

Astronomy

Dec. 07, 2014 Rise Set
Actual Time 7:09 AM PST 4:41 PM PST
Civil Twilight 6:39 AM PST 5:11 PM PST
Nautical Twilight 6:06 AM PST 5:44 PM PST
Astronomical Twilight 5:34 AM PST 6:17 PM PST
Moon 6:14 PM PST (12/7) 7:58 AM PST (12/7)
Length of Visible Light 10h 31m
Length of Day
9h 32m
Full, 98% of the Moon is Illuminated
Dec 7
Full
Dec 14
Last Quarter
Dec 21
New
Dec 28
First Quarter
Jan 4
Full

Hourly Weather History & Observations

Time (PST) Temp. Heat Index Dew Point Humidity Pressure Visibility Wind Dir Wind Speed Gust Speed Precip Events Conditions
12:15 AM 51.8 °F - 51.8 °F 100% 30.24 in 10.0 mi East 8.1 mph - N/A   Clear
12:35 AM 51.8 °F - 50.0 °F 94% 30.24 in 10.0 mi East 8.1 mph - N/A   Clear
12:55 AM 53.6 °F - 50.0 °F 88% 30.23 in 10.0 mi East 8.1 mph - N/A   Clear
1:15 AM 51.8 °F - 48.2 °F 88% 30.23 in 10.0 mi East 8.1 mph - N/A   Clear
1:35 AM 51.8 °F - 48.2 °F 88% 30.23 in 10.0 mi East 8.1 mph - N/A   Clear
1:55 AM 51.8 °F - 48.2 °F 88% 30.24 in 10.0 mi East 9.2 mph - N/A   Clear
2:15 AM 51.8 °F - 48.2 °F 88% 30.24 in 10.0 mi East 8.1 mph - N/A   Clear
2:35 AM 51.8 °F - 46.4 °F 82% 30.24 in 10.0 mi East 8.1 mph - N/A   Clear
2:55 AM 51.8 °F - 46.4 °F 82% 30.23 in 10.0 mi East 10.4 mph - N/A   Clear
3:15 AM 51.8 °F - 46.4 °F 82% 30.23 in 10.0 mi East 9.2 mph - N/A   Clear
3:35 AM 51.8 °F - 46.4 °F 82% 30.23 in 10.0 mi East 8.1 mph - N/A   Clear
3:55 AM 51.8 °F - 46.4 °F 82% 30.23 in 10.0 mi East 6.9 mph - N/A   Clear
4:15 AM 51.8 °F - 46.4 °F 82% 30.23 in 10.0 mi East 5.8 mph - N/A   Clear
4:35 AM 51.8 °F - 46.4 °F 82% 30.23 in 10.0 mi East 6.9 mph - N/A   Clear
4:55 AM 51.8 °F - 44.6 °F 76% 30.22 in 10.0 mi East 6.9 mph - N/A   Clear
5:15 AM 51.8 °F - 44.6 °F 76% 30.22 in 10.0 mi East 8.1 mph - N/A   Clear
5:35 AM 50.0 °F - 44.6 °F 82% 30.23 in 10.0 mi ESE 6.9 mph - N/A   Clear
5:55 AM 51.8 °F - 44.6 °F 76% 30.23 in 10.0 mi East 8.1 mph - N/A   Clear
6:15 AM 51.8 °F - 44.6 °F 76% 30.22 in 10.0 mi East 10.4 mph - N/A   Clear
6:35 AM 50.0 °F - 44.6 °F 82% 30.22 in 10.0 mi East 9.2 mph - N/A   Clear
6:55 AM 51.8 °F - 44.6 °F 76% 30.22 in 10.0 mi East 9.2 mph - N/A   Clear
7:15 AM 51.8 °F - 44.6 °F 76% 30.22 in 10.0 mi East 10.4 mph - N/A   Clear
7:35 AM 51.8 °F - 44.6 °F 76% 30.22 in 10.0 mi East 10.4 mph - N/A   Clear
7:55 AM 51.8 °F - 44.6 °F 76% 30.22 in 10.0 mi East 9.2 mph - N/A   Clear
8:15 AM 51.8 °F - 44.6 °F 76% 30.23 in 10.0 mi East 6.9 mph - N/A   Clear
8:35 AM 53.6 °F - 44.6 °F 72% 30.23 in 10.0 mi East 9.2 mph - N/A   Clear
8:55 AM 53.6 °F - 44.6 °F 72% 30.23 in 10.0 mi East 10.4 mph - N/A   Clear
9:15 AM 55.4 °F - 44.6 °F 67% 30.23 in 10.0 mi ESE 9.2 mph - N/A   Clear
9:35 AM 55.4 °F - 44.6 °F 67% 30.23 in 10.0 mi East 4.6 mph - N/A   Clear
9:55 AM 57.2 °F - 44.6 °F 63% 30.24 in 10.0 mi East 8.1 mph - N/A   Clear
10:15 AM 59.0 °F - 46.4 °F 63% 30.24 in 10.0 mi ESE 5.8 mph - N/A   Clear
10:35 AM - - - N/A% 30.23 in 10.0 mi East 5.8 mph - N/A   Clear
10:55 AM - - - N/A% 30.23 in 10.0 mi SE 5.8 mph - N/A   Clear
11:15 AM - - - N/A% 30.23 in 10.0 mi South 3.5 mph - N/A   Clear
11:35 AM - - - N/A% 30.22 in 10.0 mi SW 5.8 mph - N/A   Clear
11:55 AM - - - N/A% 30.22 in 10.0 mi Calm Calm - N/A   Clear
12:15 PM - - - N/A% 30.21 in 10.0 mi WSW 3.5 mph - N/A   Clear
12:35 PM - - - N/A% 30.19 in 10.0 mi Calm Calm - N/A   Clear
12:55 PM - - - N/A% 30.19 in 10.0 mi Calm Calm - N/A   Clear
1:15 PM - - - N/A% 30.18 in 10.0 mi ESE 3.5 mph - N/A   Clear
1:35 PM - - - N/A% 30.17 in 10.0 mi South 4.6 mph - N/A   Clear
1:55 PM - - - N/A% 30.17 in 10.0 mi Calm Calm - N/A   Clear
2:15 PM - - - N/A% 30.17 in 10.0 mi Calm Calm - N/A   Clear
2:35 PM - - - N/A% 30.18 in 10.0 mi WSW 4.6 mph - N/A   Clear
2:55 PM - - - N/A% 30.18 in 10.0 mi Calm Calm - N/A   Clear
3:15 PM - - - N/A% 30.18 in 10.0 mi Calm Calm - N/A   Clear
3:35 PM - - - N/A% 30.20 in 10.0 mi Calm Calm - N/A   Clear
3:55 PM - - - N/A% 30.21 in 10.0 mi West 4.6 mph - N/A   Clear
4:15 PM - - - N/A% 30.21 in 10.0 mi Calm Calm - N/A   Clear
4:35 PM - - - N/A% 30.20 in 10.0 mi Calm Calm - N/A   Clear
4:55 PM - - - N/A% 30.20 in 10.0 mi Calm Calm - N/A   Clear
5:15 PM - - - N/A% 30.18 in 10.0 mi East 6.9 mph - N/A   Clear
5:35 PM - - - N/A% 30.16 in 10.0 mi ESE 6.9 mph - N/A   Clear
5:55 PM - - - N/A% 30.18 in 10.0 mi East 4.6 mph - N/A   Clear
6:15 PM - - - N/A% 30.17 in 10.0 mi East 5.8 mph - N/A   Clear
6:35 PM - - - N/A% 30.17 in 10.0 mi ESE 6.9 mph - N/A   Clear
6:55 PM - - - N/A% 30.17 in 10.0 mi East 8.1 mph - N/A   Clear
7:15 PM - - - N/A% 30.17 in 10.0 mi East 4.6 mph - N/A   Clear
7:35 PM - - - N/A% 30.17 in 10.0 mi ESE 3.5 mph - N/A   Clear
7:55 PM - - - N/A% 30.17 in 10.0 mi ESE 5.8 mph - N/A   Clear
8:15 PM - - - N/A% 30.18 in 10.0 mi East 3.5 mph - N/A   Clear
8:35 PM - - - N/A% 30.18 in 10.0 mi ESE 6.9 mph - N/A   Clear
8:55 PM - - - N/A% 30.18 in 10.0 mi ESE 6.9 mph - N/A   Clear
9:15 PM - - - N/A% 30.19 in 10.0 mi ESE 4.6 mph - N/A   Clear
9:35 PM - - - N/A% 30.19 in 10.0 mi ESE 3.5 mph - N/A   Clear
9:55 PM - - - N/A% 30.20 in 10.0 mi East 4.6 mph - N/A   Partly Cloudy
10:15 PM - - - N/A% 30.20 in 10.0 mi ESE 3.5 mph - N/A   Clear
10:35 PM - - - N/A% 30.20 in 10.0 mi ESE 6.9 mph - N/A   Clear
10:55 PM - - - N/A% 30.20 in 10.0 mi ESE 5.8 mph - N/A   Clear
11:15 PM 172.4 °F 999.9 °F 168.8 °F 92% 30.21 in 10.0 mi East 9.2 mph - N/A   Clear
11:35 PM 168.8 °F 994.8 °F 163.4 °F 88% 30.20 in 10.0 mi East 6.9 mph - N/A   Clear
11:55 PM 161.6 °F 859.3 °F 156.2 °F 87% 30.20 in 10.0 mi East 8.1 mph - N/A   Clear